Hourly Data Report for May 10, 2012

All times are specified in Local Standard Time (LST). Add 1 hour to adjust for Daylight Saving Time where and when it is observed.

YARMOUTH A
NOVA SCOTIA

43°49'37.000" N
66°05'17.000" W
42.90 m
8206495
71603
YQI

Download Data

Hourly Data (May 2012)
Hourly Data Report for May 10, 2012
Temp Definition
°C
Dew Point Temp Definition
°C
Rel Hum Definition
%
Wind Dir Definition
10's deg

Wind Spd Definition
km/h
Visibility Definition
km
Stn Press Definition
kPa
Hmdx Definition


Wind Chill Definition


Weather Definition


TIME
00:00 Legend Double Dagger 10.4 10.3 99 18 25 8.1 100.25     Rain,Fog
01:00 Legend Double Dagger 10.7 10.6 99 19 26 4.8 100.20     Rain,Fog
02:00 Legend Double Dagger 10.2 10.1 99 18 31 4.8 100.12     Rain,Fog
03:00 Legend Double Dagger 10.3 10.2 99 18 28 4.8 100.07     Rain,Fog
04:00 Legend Double Dagger 10.7 10.6 99 18 28 4.0 99.99     Rain,Fog
05:00 Legend Double Dagger 11.4 11.1 98 19 33 6.4 99.93     Fog
06:00 Legend Double Dagger 11.8 11.5 98 18 26 6.4 99.88     Fog
07:00 Legend Double Dagger 12.4 11.8 96 17 33 8.1 99.82     Fog
08:00 Legend Double Dagger 12.5 12.2 98 17 27 6.4 99.74     Rain Showers,Fog
09:00 Legend Double Dagger 13.2 11.9 92 17 35 8.1 99.62     Fog
10:00 Legend Double Dagger 13.3 11.7 90 17 40 8.1 99.51     Rain Showers,Fog
11:00 Legend Double Dagger 12.9 12.1 95 16 45 4.8 99.36     Rain Showers,Fog
12:00 Legend Double Dagger 13.2 12.6 96 17 46 6.4 99.23     Rain Showers,Fog
13:00 Legend Double Dagger 12.7 12.6 99 16 46 4.8 99.12     Rain Showers,Fog
14:00 Legend Double Dagger 13.2 13.1 99 17 49 4.8 99.01     Rain Showers,Fog
15:00 Legend Double Dagger 13.5 13.5 100 18 40 4.8 98.98     Rain Showers,Fog
16:00 Legend Double Dagger 12.6 12.6 100 18 38 4.0 98.95     Rain Showers,Fog
17:00 Legend Double Dagger 11.1 11.1 100 21 32 1.2 99.07     Rain Showers,Fog
18:00 Legend Double Dagger 9.1 9.1 100 25 20 3.2 99.22     Fog
19:00 Legend Double Dagger 9.6 9.0 96 25 23 8.1 99.36     Fog
20:00 Legend Double Dagger 9.1 8.5 96 24 22 10.0 99.45     Fog
21:00 Legend Double Dagger 8.9 8.3 96 24 18 9.7 99.58     Fog
22:00 Legend Double Dagger 8.9 8.3 96 23 19 10.0 99.65     LegendNANA
23:00 Legend Double Dagger 9.3 8.7 96 23 22 10.0 99.71     Mainly Clear

Notes on Data Quality.

Legend

  • E = Estimated
  • M = Missing
  • NA = Not Available
  • ‡ = Partner data that is not subject to review by the National Climate Archives
Date modified: